Home > Weather > Shizuoka > Past weeks

Flag for Japan Weather for the Past 2 Weeks in Shizuoka, Japan

Now
48 °F

Cool.


Feels Like: 43 °F
Forecast: 32 / 49 °F
Wind: 13 mph from West

Location: Omaezaki

Current Time: Feb 8, 2016 at 7:35:19 PM

Latest Report: Feb 8, 2016 at 6:00 PM


Visibility: 13 mi

Pressure: 29.99 "Hg

Humidity: 46%

Dew point: 29 °F

Location of ShizuokaLocation

Historic Weather in Shizuoka — Graph

°F

Shizuoka Temperature Yesterday

Maximum temperature yesterday: 52 °F (at 2:00 PM)
Minimum temperature yesterday: 35 °F (at 7:00 AM)
Average temperature yesterday: 42 °F

High & Low Weather Summary for the Past Weeks

 TemperatureHumidityPressure
High55 °F (Feb 5, 2:00 PM)97% (Jan 29, 3:00 PM)30.32 "Hg (Jan 29, 3:00 PM)
Low26 °F (Jan 25, 5:00 AM)19% (Feb 7, 3:00 PM)29.81 "Hg (Feb 6, 7:00 PM)
Average44 °F58%30.08 "Hg
* Reported Jan 24 6:00 PM — Feb 8 6:00 PM, Shizuoka, Weather by CustomWeather, © 2016

Note: Actual official high and low records may vary slightly from our data, if they occured in-between our weather recording intervals... More about our weather records

Advertising

Shizuoka Weather History for the Previous 24 Hours

 ConditionsComfort  
Time TempWeatherWind HumidityBarometerVisibility
6:00 PM
Mon, Feb 8
48 °FCool.13 mph46%29.99 "Hg12 mi
5:00 PM49 °FCool.13 mph37%29.99 "Hg12 mi
4:00 PM49 °FCool.13 mph37%29.98 "Hg12 mi
3:00 PM50 °FCool.12 mph36%29.99 "Hg12 mi
2:00 PM49 °FCool.12 mph28%30.00 "Hg12 mi
1:00 PM48 °FCool.8 mph49%30.03 "Hg12 mi
11:00 AM46 °FCool.6 mph43%30.09 "Hg12 mi
10:00 AM45 °FQuite cool.5 mph50%30.11 "Hg12 mi
7:00 AM35 °FChilly.5 mph71%30.11 "Hg12 mi
6:00 AM33 °FChilly.3 mph70%30.08 "Hg12 mi
5:00 AM33 °FChilly.7 mph67%30.07 "Hg12 mi
4:00 AM32 °FChilly.7 mph74%30.08 "Hg12 mi
3:00 AM34 °FChilly.3 mph74%30.08 "Hg12 mi
2:00 AM34 °FChilly.6 mph53%30.09 "Hg12 mi
1:00 AM35 °FChilly.8 mph47%30.08 "Hg12 mi
12:00 AM33 °FChilly.6 mph51%30.09 "Hg12 mi
11:00 PM
Sun, Feb 7
36 °FChilly.6 mph44%30.08 "Hg12 mi
10:00 PM37 °FChilly.5 mph42%30.08 "Hg12 mi
9:00 PM39 °FChilly.12 mph38%30.06 "Hg12 mi
8:00 PM40 °FChilly.10 mph35%30.05 "Hg12 mi
7:00 PM42 °FQuite cool.13 mph30%30.04 "Hg12 mi
Weather by CustomWeather, © 2016

See weather overviewHow to use our weather pages